Weather History for Linden, NJ

Change the Weather History Date:

Friday, May 2, 2014

  Actual Average (KEWR) Record (KEWR)
Temperature  
Mean Temperature 64 °F 58 °F  
Max Temperature 69 °F 68 °F 92 °F (2001)
Min Temperature 58 °F 49 °F 35 °F (1943)
Degree Days  
Heating Degree Days 2 7  
Month to date heating degree days 15  
Since 1 July heating degree days 4735  
Cooling Degree Days 0 1  
Month to date cooling degree days 2  
Year to date cooling degree days 14  
Growing Degree Days 14 (Base 50)    
Moisture  
Dew Point 41 °F    
Average Humidity 46    
Maximum Humidity 74    
Minimum Humidity 31    
Precipitation  
Precipitation 0.00 in 0.11 in 0.93 in (1989)
Month to date precipitation 0.23  
Year to date precipitation 15.03  
Snow  
Snow 0.00 in 0.00 in T in (1956)
Month to date snowfall 0.0  
Since 1 July snowfall 28.5  
Snow Depth -    
Sea Level Pressure  
Sea Level Pressure 29.79 in    
Wind  
Wind Speed 9 mph (WNW)    
Max Wind Speed 20 mph    
Max Gust Speed 26 mph    
Visibility 10 miles    
Events Rain    
T = Trace of Precipitation, MM = Missing Value Source: NWS Daily Summary

Daily Weather History Graph

Daily Weather History Graph

Search for Another Location

Airport:

Trip Planner

Search our weather history database for the weather conditions in past years. The results will help you decide how hot, cold, wet, or windy it might be!

Date:

Astronomy

May. 02, 2014 Rise Set
Actual Time 5:54 AM EDT 7:53 PM EDT
Civil Twilight 5:24 AM EDT 8:23 PM EDT
Nautical Twilight 4:48 AM EDT 9:00 PM EDT
Astronomical Twilight 4:09 AM EDT 9:39 PM EDT
Moon 8:29 AM EDT (5/2) 11:14 PM EDT (5/2)
Length of Visible Light 14h 58m
Length of Day
13h 59m
Waxing Crescent, 12% of the Moon is Illuminated
May 2
Waxing Crescent
May 6
First Quarter
May 14
Full
May 21
Last Quarter
May 28
New

Hourly Weather History & Observations

Time (EDT) Temp. Dew Point Humidity Pressure Visibility Wind Dir Wind Speed Gust Speed Precip Events Conditions
12:15 AM 65.7 °F 49.5 °F 56% 29.73 in 10.0 mi NW 11.5 mph - N/A   Scattered Clouds
12:35 AM 64.6 °F 49.1 °F 57% 29.73 in 10.0 mi NW 9.2 mph - N/A   Scattered Clouds
12:55 AM 64.4 °F 48.2 °F 56% 29.75 in 10.0 mi NW 8.1 mph - N/A   Mostly Cloudy
1:15 AM 63.7 °F 47.7 °F 56% 29.75 in 10.0 mi NW 8.1 mph - N/A   Mostly Cloudy
1:35 AM 63.9 °F 47.8 °F 56% 29.76 in 10.0 mi North 6.9 mph - N/A   Mostly Cloudy
1:55 AM 63.5 °F 47.7 °F 56% 29.75 in 10.0 mi North 6.9 mph - N/A   Overcast
2:15 AM 62.8 °F 47.3 °F 57% 29.74 in 10.0 mi North 6.9 mph - N/A   Mostly Cloudy
2:35 AM 62.6 °F 47.3 °F 57% 29.74 in 10.0 mi North 4.6 mph - N/A   Mostly Cloudy
2:55 AM 61.9 °F 49.1 °F 63% 29.75 in 10.0 mi NW 4.6 mph - N/A Rain Light Rain
3:15 AM 60.4 °F 50.4 °F 69% 29.75 in 10.0 mi NNW 3.5 mph - N/A   Overcast
3:35 AM 60.8 °F 49.8 °F 67% 29.76 in 10.0 mi NW 5.8 mph - N/A   Overcast
3:55 AM 60.8 °F 49.3 °F 66% 29.76 in 10.0 mi NNW 5.8 mph - N/A   Overcast
4:15 AM 60.1 °F 49.1 °F 67% 29.75 in 10.0 mi NNW 5.8 mph - N/A   Overcast
4:35 AM 59.9 °F 49.3 °F 68% 29.78 in 10.0 mi West 4.6 mph - N/A   Overcast
4:55 AM 59.9 °F 49.3 °F 68% 29.78 in 10.0 mi WNW 3.5 mph - N/A   Overcast
5:15 AM 59.0 °F 50.2 °F 73% 29.77 in 10.0 mi Calm Calm - N/A   Overcast
5:35 AM 58.5 °F 50.4 °F 74% 29.77 in 10.0 mi NW 3.5 mph - N/A   Overcast
5:55 AM 58.3 °F 49.8 °F 73% 29.78 in 10.0 mi WNW 4.6 mph - N/A   Overcast
6:15 AM 58.3 °F 49.5 °F 72% 29.79 in 10.0 mi West 5.8 mph - N/A   Mostly Cloudy
6:35 AM 58.1 °F 49.1 °F 72% 29.78 in 10.0 mi WNW 4.6 mph - N/A   Mostly Cloudy
6:55 AM 58.1 °F 49.1 °F 72% 29.79 in 10.0 mi West 5.8 mph - N/A   Overcast
7:15 AM 58.3 °F 49.1 °F 71% 29.79 in 10.0 mi WNW 6.9 mph - N/A   Overcast
7:35 AM 59.0 °F 48.4 °F 68% 29.79 in 10.0 mi WNW 6.9 mph - N/A   Overcast
7:55 AM 59.4 °F 47.7 °F 65% 29.79 in 10.0 mi WNW 8.1 mph - N/A   Overcast
8:15 AM 59.9 °F 46.2 °F 61% 29.80 in 10.0 mi WNW 6.9 mph - N/A   Overcast
8:35 AM 60.3 °F 43.3 °F 54% 29.80 in 10.0 mi WNW 8.1 mph - N/A   Overcast
8:55 AM 60.8 °F 41.5 °F 49% 29.79 in 10.0 mi WNW 6.9 mph - N/A   Overcast
9:15 AM 62.4 °F 40.3 °F 44% 29.80 in 10.0 mi WNW 12.7 mph - N/A   Mostly Cloudy
9:35 AM 63.0 °F 39.9 °F 43% 29.80 in 10.0 mi WNW 13.8 mph 17.3 mph N/A   Overcast
9:55 AM 64.0 °F 39.6 °F 41% 29.81 in 10.0 mi WNW 10.4 mph 16.1 mph N/A   Scattered Clouds
10:15 AM 64.8 °F 38.1 °F 37% 29.80 in 10.0 mi NW 9.2 mph 16.1 mph N/A   Clear
10:35 AM 65.8 °F 38.8 °F 37% 29.80 in 10.0 mi WNW 9.2 mph - N/A   Clear
10:55 AM 66.0 °F 37.6 °F 35% 29.80 in 10.0 mi West 6.9 mph - N/A   Clear
11:15 AM 66.9 °F 37.2 °F 34% 29.79 in 10.0 mi WNW 12.7 mph 16.1 mph N/A   Mostly Cloudy
11:35 AM 65.7 °F 36.1 °F 34% 29.79 in 10.0 mi WNW 15.0 mph 20.7 mph N/A   Overcast
11:55 AM 66.9 °F 35.4 °F 31% 29.79 in 10.0 mi West 12.7 mph 24.2 mph N/A   Mostly Cloudy
12:15 PM 66.2 °F 34.5 °F 31% 29.79 in 10.0 mi WNW 17.3 mph - N/A   Scattered Clouds
12:35 PM 66.2 °F 35.8 °F 32% 29.79 in 10.0 mi West 12.7 mph 19.6 mph N/A   Mostly Cloudy
12:55 PM 66.0 °F 37.2 °F 35% 29.78 in 10.0 mi WNW 13.8 mph - N/A   Overcast
1:15 PM 66.6 °F 36.1 °F 33% 29.78 in 10.0 mi West 11.5 mph 18.4 mph N/A   Overcast
1:35 PM 66.6 °F 36.3 °F 33% 29.78 in 10.0 mi NW 15.0 mph 19.6 mph N/A   Overcast
1:55 PM 68.5 °F 38.1 °F 33% 29.78 in 10.0 mi West 13.8 mph 20.7 mph N/A   Mostly Cloudy
2:15 PM 67.1 °F 37.8 °F 34% 29.78 in 10.0 mi NW 13.8 mph - N/A   Mostly Cloudy
2:35 PM 68.5 °F 37.8 °F 32% 29.78 in 10.0 mi West 15.0 mph 26.5 mph N/A   Scattered Clouds
2:55 PM 69.8 °F 38.1 °F 31% 29.77 in 10.0 mi WNW 11.5 mph 18.4 mph N/A   Scattered Clouds
3:15 PM 68.5 °F 38.1 °F 33% 29.77 in 10.0 mi WNW 13.8 mph 23.0 mph N/A   Mostly Cloudy
3:35 PM 68.5 °F 37.8 °F 32% 29.77 in 10.0 mi West 11.5 mph 17.3 mph N/A   Mostly Cloudy
3:55 PM 69.8 °F 37.4 °F 31% 29.77 in 10.0 mi West 15.0 mph 23.0 mph N/A   Scattered Clouds
4:15 PM 67.6 °F 37.2 °F 33% 29.77 in 10.0 mi West 16.1 mph 24.2 mph N/A   Scattered Clouds
4:35 PM 68.2 °F 38.7 °F 34% 29.77 in 10.0 mi WNW 18.4 mph 24.2 mph N/A   Scattered Clouds
5:15 PM 67.3 °F 38.3 °F 35% 29.77 in 10.0 mi WNW 11.5 mph 18.4 mph N/A   Mostly Cloudy
5:35 PM 67.6 °F 37.8 °F 33% 29.78 in 10.0 mi West 11.5 mph 20.7 mph N/A   Mostly Cloudy
5:55 PM 67.8 °F 36.1 °F 31% 29.78 in 10.0 mi West 19.6 mph 25.3 mph N/A   Mostly Cloudy
6:15 PM 66.7 °F 36.3 °F 33% 29.79 in 10.0 mi West 12.7 mph 23.0 mph N/A   Mostly Cloudy
6:35 PM 67.6 °F 36.5 °F 32% 29.79 in 10.0 mi WNW 16.1 mph 20.7 mph N/A   Overcast
6:55 PM 66.6 °F 36.0 °F 32% 29.80 in 10.0 mi WNW 17.3 mph 23.0 mph N/A   Scattered Clouds
7:15 PM 66.2 °F 35.4 °F 32% 29.81 in 10.0 mi WNW 12.7 mph 17.3 mph N/A   Scattered Clouds
7:35 PM 65.1 °F 35.8 °F 34% 29.82 in 10.0 mi WNW 12.7 mph - N/A   Scattered Clouds
7:55 PM 64.2 °F 35.6 °F 35% 29.83 in 10.0 mi WNW 11.5 mph 17.3 mph N/A   Clear
8:15 PM 63.7 °F 35.6 °F 35% 29.83 in 10.0 mi WNW 11.5 mph 16.1 mph N/A   Clear
8:35 PM 63.5 °F 35.6 °F 35% 29.85 in 10.0 mi West 8.1 mph - N/A   Scattered Clouds
9:15 PM 61.7 °F 36.0 °F 38% 29.86 in 10.0 mi WNW 9.2 mph - N/A   Clear
9:35 PM 61.3 °F 36.0 °F 39% 29.86 in 10.0 mi WNW 10.4 mph - N/A   Clear
9:55 PM 61.0 °F 35.6 °F 39% 29.87 in 10.0 mi WNW 6.9 mph - N/A   Clear
10:15 PM 59.9 °F 36.1 °F 41% 29.87 in 10.0 mi WNW 5.8 mph - N/A   Clear
10:35 PM 59.9 °F 36.0 °F 41% 29.86 in 10.0 mi WNW 6.9 mph - N/A   Clear
10:55 PM 60.3 °F 34.9 °F 39% 29.87 in 10.0 mi West 3.5 mph - N/A   Clear
11:15 PM 60.8 °F 34.7 °F 38% 29.87 in 10.0 mi West 4.6 mph - N/A   Clear
11:35 PM 59.4 °F 35.1 °F 40% 29.87 in 10.0 mi West 3.5 mph - N/A   Clear